When you browse on this site, cookies collect data to enhance your experience and personalize the content and advertising you see.
Visit our Privacy Policy to learn more. By continuing to use the site, you agree to this use of cookies and data.
  • en France
  • Liste des pays
  • À 7 jours
  • Température de l'eau
  • Carte météo
  • Widgets météo
  • user-avatar
    Se connecter

    Météo par heure à Mangotsfield

    Ce jour, 22 Août, Jeudi

    Heure Température Précipitation Vent Pression Humidité
    00:00 +13°C° 0 mm 3 m/s 763 mmHg 91%
    01:00 +12°C° 0 mm 3 m/s 762 mmHg 91%
    02:00 +12°C° 0 mm 3 m/s 762 mmHg 92%
    03:00 +12°C° 0 mm 3 m/s 762 mmHg 92%
    04:00 +12°C° 0 mm 3 m/s 762 mmHg 91%
    05:00 +12°C° 0 mm 3 m/s 762 mmHg 90%
    06:00 +13°C° 0 mm 4 m/s 762 mmHg 89%
    07:00 +14°C° 0 mm 4 m/s 762 mmHg 86%
    08:00 +16°C° 0 mm 5 m/s 762 mmHg 82%
    09:00 +17°C° 0 mm 5 m/s 762 mmHg 79%
    10:00 +19°C° 0 mm 5 m/s 762 mmHg 76%
    11:00 +20°C° 0 mm 5 m/s 763 mmHg 74%
    12:00 +21°C° 0 mm 5 m/s 763 mmHg 72%
    13:00 +21°C° 0.1 mm 5 m/s 763 mmHg 72%
    14:00 +21°C° 0.1 mm 5 m/s 763 mmHg 71%
    15:00 +22°C° 0.1 mm 5 m/s 763 mmHg 71%
    16:00 +21°C° 0 mm 5 m/s 763 mmHg 74%
    17:00 +20°C° 0 mm 4 m/s 762 mmHg 77%
    18:00 +20°C° 0 mm 4 m/s 762 mmHg 80%
    19:00 +18°C° 0 mm 3 m/s 763 mmHg 85%
    20:00 +17°C° 0 mm 3 m/s 763 mmHg 89%
    21:00 +16°C° 0 mm 2 m/s 763 mmHg 94%
    22:00 +16°C° 0 mm 2 m/s 763 mmHg 94%
    23:00 +16°C° 0 mm 2 m/s 763 mmHg 95%

    Demain, 23 Août, Vendredi

    Heure Température Précipitation Vent Pression Humidité
    00:00 +15°C° 0 mm 2 m/s 763 mmHg 96%
    01:00 +15°C° 0 mm 2 m/s 763 mmHg 96%
    02:00 +15°C° 0 mm 1 m/s 763 mmHg 96%
    03:00 +15°C° 0 mm 1 m/s 763 mmHg 96%
    04:00 +15°C° 0 mm 1 m/s 763 mmHg 96%
    05:00 +15°C° 0 mm 1 m/s 763 mmHg 95%
    06:00 +15°C° 0 mm 1 m/s 762 mmHg 95%
    07:00 +18°C° 0 mm 1 m/s 763 mmHg 90%
    08:00 +19°C° 0 mm 1 m/s 763 mmHg 84%
    09:00 +20°C° 0 mm 1 m/s 763 mmHg 79%
    10:00 +22°C° 0 mm 1 m/s 763 mmHg 74%
    11:00 +23°C° 0 mm 2 m/s 762 mmHg 68%
    12:00 +24°C° 0 mm 2 m/s 762 mmHg 63%
    13:00 +24°C° 0 mm 2 m/s 762 mmHg 60%
    14:00 +25°C° 0 mm 2 m/s 762 mmHg 57%
    15:00 +25°C° 0 mm 3 m/s 762 mmHg 54%
    16:00 +24°C° 0 mm 3 m/s 761 mmHg 58%
    17:00 +23°C° 0 mm 2 m/s 761 mmHg 61%
    18:00 +21°C° 0 mm 2 m/s 760 mmHg 64%
    19:00 +19°C° 0 mm 2 m/s 760 mmHg 67%
    20:00 +18°C° 0 mm 1 m/s 761 mmHg 70%
    21:00 +15°C° 0 mm 1 m/s 761 mmHg 73%
    22:00 +15°C° 0 mm 1 m/s 760 mmHg 72%
    23:00 +15°C° 0 mm 1 m/s 760 mmHg 71%

    Après-demain, 24 Août, Samedi

    Heure Température Précipitation Vent Pression Humidité
    00:00 +14°C° 0 mm 1 m/s 760 mmHg 70%
    01:00 +14°C° 0 mm 1 m/s 759 mmHg 69%
    02:00 +14°C° 0 mm 1 m/s 759 mmHg 68%
    03:00 +13°C° 0 mm 1 m/s 759 mmHg 67%
    04:00 +13°C° 0 mm 1 m/s 759 mmHg 68%
    05:00 +13°C° 0 mm 1 m/s 758 mmHg 68%
    06:00 +14°C° 0 mm 2 m/s 758 mmHg 69%
    07:00 +16°C° 0 mm 2 m/s 758 mmHg 67%
    08:00 +18°C° 0 mm 2 m/s 758 mmHg 65%
    09:00 +20°C° 0 mm 3 m/s 758 mmHg 64%
    10:00 +22°C° 0 mm 3 m/s 758 mmHg 61%
    11:00 +23°C° 0 mm 4 m/s 758 mmHg 59%
    12:00 +26°C° 0 mm 4 m/s 757 mmHg 56%
    13:00 +26°C° 0 mm 4 m/s 757 mmHg 55%
    14:00 +27°C° 0 mm 4 m/s 757 mmHg 54%
    15:00 +27°C° 0 mm 4 m/s 757 mmHg 52%
    16:00 +26°C° 0 mm 4 m/s 756 mmHg 57%
    17:00 +25°C° 0 mm 3 m/s 756 mmHg 62%
    18:00 +24°C° 0 mm 3 m/s 756 mmHg 67%
    19:00 +22°C° 0 mm 3 m/s 756 mmHg 69%
    20:00 +20°C° 0 mm 3 m/s 756 mmHg 71%
    21:00 +19°C° 0 mm 2 m/s 756 mmHg 73%
    22:00 +19°C° 0 mm 2 m/s 756 mmHg 74%
    23:00 +18°C° 0 mm 2 m/s 756 mmHg 74%

    25 Août, Dimanche

    Heure Température Précipitation Vent Pression Humidité
    00:00 +18°C° 0 mm 2 m/s 755 mmHg 75%
    01:00 +18°C° 0 mm 2 m/s 755 mmHg 75%
    02:00 +17°C° 0 mm 2 m/s 755 mmHg 76%
    03:00 +18°C° 0 mm 1 m/s 755 mmHg 76%
    04:00 +17°C° 0 mm 2 m/s 755 mmHg 77%
    05:00 +17°C° 0 mm 2 m/s 755 mmHg 77%
    06:00 +17°C° 0 mm 2 m/s 755 mmHg 78%
    07:00 +19°C° 0 mm 2 m/s 755 mmHg 74%
    08:00 +21°C° 0 mm 2 m/s 755 mmHg 69%
    09:00 +23°C° 0 mm 2 m/s 756 mmHg 65%
    10:00 +25°C° 0 mm 2 m/s 756 mmHg 62%
    11:00 +26°C° 0 mm 2 m/s 756 mmHg 58%
    12:00 +28°C° 0 mm 2 m/s 756 mmHg 55%
    13:00 +27°C° 0 mm 3 m/s 756 mmHg 57%
    14:00 +27°C° 0 mm 3 m/s 756 mmHg 59%
    15:00 +27°C° 0 mm 3 m/s 756 mmHg 61%
    16:00 +25°C° 0 mm 3 m/s 756 mmHg 67%
    17:00 +24°C° 0 mm 3 m/s 756 mmHg 72%
    18:00 +22°C° 0 mm 3 m/s 756 mmHg 78%
    19:00 +20°C° 0 mm 2 m/s 757 mmHg 82%
    20:00 +19°C° 0 mm 2 m/s 757 mmHg 86%
    21:00 +17°C° 0 mm 2 m/s 757 mmHg 90%
    22:00 +18°C° 0 mm 1 m/s 757 mmHg 91%
    23:00 +18°C° 0 mm 1 m/s 757 mmHg 91%

    26 Août, Lundi

    Heure Température Précipitation Vent Pression Humidité
    00:00 +16°C° 0 mm 1 m/s 757 mmHg 92%
    01:00 +16°C° 0 mm 1 m/s 757 mmHg 93%
    02:00 +16°C° 0 mm 1 m/s 757 mmHg 93%
    03:00 +16°C° 0 mm 1 m/s 757 mmHg 94%
    04:00 +16°C° 0 mm 1 m/s 757 mmHg 94%
    05:00 +16°C° 0 mm 1 m/s 757 mmHg 93%
    06:00 +16°C° 0 mm 1 m/s 757 mmHg 93%
    07:00 +19°C° 0 mm 1 m/s 757 mmHg 85%
    08:00 +21°C° 0 mm 1 m/s 757 mmHg 78%
    09:00 +23°C° 0 mm 1 m/s 757 mmHg 71%
    10:00 +24°C° 0 mm 1 m/s 757 mmHg 66%
    11:00 +25°C° 0 mm 1 m/s 757 mmHg 60%
    12:00 +27°C° 0 mm 1 m/s 757 mmHg 55%
    13:00 +27°C° 0 mm 1 m/s 756 mmHg 55%
    14:00 +27°C° 0 mm 2 m/s 756 mmHg 55%
    15:00 +28°C° 0 mm 2 m/s 756 mmHg 54%
    16:00 +27°C° 0 mm 2 m/s 755 mmHg 60%
    17:00 +25°C° 0 mm 2 m/s 755 mmHg 66%
    18:00 +24°C° 0 mm 3 m/s 755 mmHg 72%
    19:00 +23°C° 0 mm 2 m/s 755 mmHg 76%
    20:00 +20°C° 0 mm 2 m/s 755 mmHg 80%
    21:00 +19°C° 0 mm 2 m/s 755 mmHg 84%
    22:00 +20°C° 0 mm 1 m/s 755 mmHg 85%
    23:00 +19°C° 0 mm 1 m/s 755 mmHg 86%

    27 Août, Mardi

    Heure Température Précipitation Vent Pression Humidité
    00:00 +19°C° 0 mm 1 m/s 754 mmHg 87%
    01:00 +19°C° 0 mm 1 m/s 754 mmHg 87%
    02:00 +18°C° 0 mm 1 m/s 754 mmHg 87%
    03:00 +18°C° 0 mm 1 m/s 753 mmHg 87%
    04:00 +18°C° 0 mm 1 m/s 753 mmHg 86%
    05:00 +17°C° 0 mm 2 m/s 753 mmHg 85%
    06:00 +17°C° 0 mm 2 m/s 753 mmHg 85%
    07:00 +18°C° 0 mm 2 m/s 753 mmHg 80%
    08:00 +20°C° 0 mm 2 m/s 753 mmHg 76%
    09:00 +23°C° 0 mm 2 m/s 753 mmHg 71%
    10:00 +24°C° 0.1 mm 2 m/s 753 mmHg 69%
    11:00 +25°C° 0.1 mm 2 m/s 753 mmHg 67%
    12:00 +26°C° 0.1 mm 1 m/s 753 mmHg 64%
    13:00 +26°C° 0.7 mm 2 m/s 753 mmHg 67%
    14:00 +25°C° 0.7 mm 3 m/s 753 mmHg 69%
    15:00 +25°C° 0.7 mm 4 m/s 752 mmHg 72%
    16:00 +23°C° 0.6 mm 5 m/s 752 mmHg 76%
    17:00 +21°C° 0.6 mm 5 m/s 752 mmHg 80%
    18:00 +20°C° 0.6 mm 6 m/s 752 mmHg 84%
    19:00 +19°C° 0.8 mm 5 m/s 753 mmHg 86%
    20:00 +17°C° 0.8 mm 5 m/s 753 mmHg 88%
    21:00 +16°C° 0.8 mm 5 m/s 753 mmHg 90%
    22:00 +17°C° 0 mm 4 m/s 753 mmHg 90%
    23:00 +17°C° 0 mm 4 m/s 753 mmHg 89%
    Voir plus